Torna al catalogo

KUIPER-00294

AttivoComunicazioniLEO
NORAD 68594·PAYLOAD·🇺🇸 United States

Lanciato Apr 4, 2026 da Cape Canaveral Space Force Station

Loading…

Prossimi Passaggi (prossime 24 ore)

TLE

AggiornatoSource: CelesTrak SupGP

Epoca: Sep 15, 2026, 05:28 UTC

1 68594C 26072X   26258.22843750  .00004210  00000+0  55115-3 0  2587
2 68594  51.8974 137.4867 0000772 105.3188 247.4982 14.79922250    14

Traccia KUIPER-00294 in tempo reale con AllMySat

Download on the App Store